Time,TemperatureF,DewpointF,PressureIn,WindDirection,WindDirectionDegrees,WindSpeedMPH,WindSpeedGustMPH,Humidity,HourlyPrecipIn,Conditions,Clouds,dailyrainin,SoftwareType,DateUTC
2013-04-06 00:00:00,49.5,45.2,29.97,WSW,248,1.8,2.7,85,0.04,,---,0.00,VWS V14.01,2013-04-06 07:00:00,
2013-04-06 00:06:00,49.9,45.6,29.96,NE,45,2.5,2.5,85,0.03,,---,0.00,VWS V14.01,2013-04-06 07:06:00,
2013-04-06 00:10:00,49.7,45.4,29.96,NNE,22,6.3,6.3,85,0.02,,---,0.00,VWS V14.01,2013-04-06 07:10:00,
2013-04-06 00:16:00,50.0,45.0,29.96,NE,45,0.7,0.7,83,0.01,,---,0.00,VWS V14.01,2013-04-06 07:16:00,
2013-04-06 00:21:00,50.2,45.6,29.96,NE,45,3.1,3.1,84,0.00,,---,0.00,VWS V14.01,2013-04-06 07:21:00,
2013-04-06 00:26:00,50.0,45.4,29.96,SE,135,3.4,3.4,84,0.01,,---,0.01,VWS V14.01,2013-04-06 07:26:00,
2013-04-06 00:30:00,50.0,45.0,29.96,South,180,1.1,1.3,83,0.01,,---,0.01,VWS V14.01,2013-04-06 07:30:00,
2013-04-06 00:36:00,50.0,45.7,29.96,NE,45,2.7,2.7,85,0.01,,---,0.01,VWS V14.01,2013-04-06 07:36:00,
2013-04-06 00:41:00,50.4,46.1,29.96,WSW,248,2.2,2.2,85,0.02,,---,0.02,VWS V14.01,2013-04-06 07:41:00,
2013-04-06 00:46:00,50.4,46.1,29.96,South,180,4.0,4.0,85,0.03,,---,0.03,VWS V14.01,2013-04-06 07:46:00,
2013-04-06 00:51:00,50.8,46.2,29.96,South,180,7.4,7.4,84,0.03,,---,0.03,VWS V14.01,2013-04-06 07:51:00,
2013-04-06 00:56:00,50.8,45.8,29.96,South,180,6.7,6.7,83,0.03,,---,0.03,VWS V14.01,2013-04-06 07:56:00,
2013-04-06 01:01:00,51.1,45.8,29.97,South,180,6.3,6.3,82,0.03,,---,0.03,VWS V14.01,2013-04-06 08:01:00,
2013-04-06 01:06:00,51.5,46.2,29.96,South,180,4.7,4.7,82,0.03,,---,0.03,VWS V14.01,2013-04-06 08:06:00,
2013-04-06 01:11:00,51.5,45.2,29.96,South,180,4.3,4.3,79,0.03,,---,0.03,VWS V14.01,2013-04-06 08:11:00,
2013-04-06 01:16:00,51.8,45.8,29.96,South,180,6.7,6.7,80,0.03,,---,0.03,VWS V14.01,2013-04-06 08:16:00,
2013-04-06 01:21:00,51.8,45.2,29.96,South,180,1.8,1.8,78,0.03,,---,0.03,VWS V14.01,2013-04-06 08:21:00,
2013-04-06 01:25:00,52.2,45.6,29.96,South,180,2.5,2.5,78,0.02,,---,0.03,VWS V14.01,2013-04-06 08:25:00,
2013-04-06 01:30:00,52.2,45.6,29.95,South,180,4.0,6.5,78,0.02,,---,0.03,VWS V14.01,2013-04-06 08:30:00,
2013-04-06 01:35:00,52.2,45.2,29.96,South,180,13.4,13.4,77,0.02,,---,0.03,VWS V14.01,2013-04-06 08:35:00,
2013-04-06 01:40:00,52.4,45.4,29.97,ESE,112,3.4,3.4,77,0.01,,---,0.00,VWS V14.01,2013-04-06 08:40:00,
2013-04-06 01:45:00,52.6,45.6,29.97,South,180,5.4,5.4,77,0.00,,---,0.03,VWS V14.01,2013-04-06 08:45:00,
2013-04-06 01:50:00,52.4,45.8,29.97,South,180,1.6,4.0,78,0.00,,---,0.03,VWS V14.01,2013-04-06 08:50:00,
2013-04-06 01:55:00,52.0,46.0,29.98,South,180,5.4,5.4,80,0.02,,---,0.05,VWS V14.01,2013-04-06 08:55:00,
2013-04-06 02:00:00,51.8,46.2,29.99,South,180,1.3,3.1,81,0.04,,---,0.07,VWS V14.01,2013-04-06 09:00:00,
2013-04-06 02:05:00,51.3,46.3,30.00,South,180,2.2,3.6,83,0.05,,---,0.08,VWS V14.01,2013-04-06 09:05:00,
2013-04-06 02:10:00,50.8,46.2,30.01,South,180,2.7,6.3,84,0.09,,---,0.12,VWS V14.01,2013-04-06 09:10:00,
2013-04-06 02:15:00,50.2,46.2,30.01,South,180,1.1,3.4,86,0.13,,---,0.16,VWS V14.01,2013-04-06 09:15:00,
2013-04-06 02:20:00,49.9,45.9,30.02,South,180,6.3,6.3,86,0.14,,---,0.17,VWS V14.01,2013-04-06 09:20:00,
2013-04-06 02:25:00,49.5,44.9,30.01,South,180,2.0,5.1,84,0.17,,---,0.19,VWS V14.01,2013-04-06 09:25:00,
2013-04-06 02:30:00,49.3,45.0,30.01,South,180,3.8,3.8,85,0.17,,---,0.19,VWS V14.01,2013-04-06 09:30:00,
2013-04-06 02:35:00,49.3,45.0,30.01,South,180,0.4,1.8,85,0.17,,---,0.19,VWS V14.01,2013-04-06 09:35:00,
2013-04-06 02:40:00,49.3,45.0,30.01,South,180,3.6,3.6,85,0.17,,---,0.19,VWS V14.01,2013-04-06 09:40:00,
2013-04-06 02:45:00,49.3,45.0,30.01,South,180,0.0,0.0,85,0.17,,---,0.19,VWS V14.01,2013-04-06 09:45:00,
2013-04-06 02:51:00,49.3,45.3,30.02,South,180,2.5,4.9,86,0.17,,---,0.19,VWS V14.01,2013-04-06 09:51:00,
2013-04-06 02:56:00,49.3,45.3,30.01,West,270,3.6,3.6,86,0.15,,---,0.19,VWS V14.01,2013-04-06 09:56:00,
2013-04-06 03:01:00,49.5,45.2,30.02,South,180,2.5,2.5,85,0.13,,---,0.19,VWS V14.01,2013-04-06 10:01:00,
2013-04-06 03:06:00,49.5,45.2,30.02,South,180,6.0,6.0,85,0.11,,---,0.19,VWS V14.01,2013-04-06 10:06:00,
2013-04-06 03:11:00,49.3,45.0,30.02,South,180,4.5,4.5,85,0.07,,---,0.19,VWS V14.01,2013-04-06 10:11:00,
2013-04-06 03:16:00,49.5,44.2,30.03,South,180,1.6,1.6,82,0.03,,---,0.19,VWS V14.01,2013-04-06 10:16:00,
2013-04-06 03:21:00,49.7,44.4,30.03,South,180,3.6,3.6,82,0.02,,---,0.19,VWS V14.01,2013-04-06 10:21:00,
2013-04-06 03:26:00,49.7,44.4,30.03,South,180,5.4,5.4,82,0.00,,---,0.19,VWS V14.01,2013-04-06 10:26:00,
2013-04-06 03:31:00,49.7,44.1,30.04,WNW,292,7.4,7.4,81,0.00,,---,0.19,VWS V14.01,2013-04-06 10:31:00,
2013-04-06 03:36:00,49.7,44.1,30.03,South,180,5.4,5.4,81,0.00,,---,0.19,VWS V14.01,2013-04-06 10:36:00,
2013-04-06 03:41:00,49.5,43.6,30.04,South,180,8.9,8.9,80,0.00,,---,0.19,VWS V14.01,2013-04-06 10:41:00,
2013-04-06 03:47:00,49.7,43.1,30.04,West,270,6.9,16.6,78,0.00,,---,0.19,VWS V14.01,2013-04-06 10:47:00,
2013-04-06 03:52:00,50.0,43.4,30.04,South,180,6.9,6.9,78,0.00,,---,0.19,VWS V14.01,2013-04-06 10:52:00,
2013-04-06 03:57:00,49.9,43.3,30.04,South,180,5.6,5.6,78,0.00,,---,0.19,VWS V14.01,2013-04-06 10:57:00,
2013-04-06 04:02:00,50.0,43.4,30.04,South,180,2.5,3.1,78,0.00,,---,0.19,VWS V14.01,2013-04-06 11:02:00,
2013-04-06 04:07:00,50.0,43.4,30.04,South,180,3.4,3.4,78,0.00,,---,0.19,VWS V14.01,2013-04-06 11:07:00,
2013-04-06 04:12:00,49.7,43.5,30.05,South,180,4.3,4.3,79,0.00,,---,0.19,VWS V14.01,2013-04-06 11:12:00,
2013-04-06 04:17:00,49.5,43.3,30.05,South,180,4.9,4.9,79,0.00,,---,0.19,VWS V14.01,2013-04-06 11:17:00,
2013-04-06 04:22:00,49.3,42.7,30.05,South,180,2.7,4.5,78,0.00,,---,0.19,VWS V14.01,2013-04-06 11:22:00,
2013-04-06 04:27:00,49.3,42.7,30.05,WSW,248,7.6,7.6,78,0.00,,---,0.19,VWS V14.01,2013-04-06 11:27:00,
2013-04-06 04:32:00,49.3,42.7,30.05,South,180,4.5,4.5,78,0.00,,---,0.19,VWS V14.01,2013-04-06 11:32:00,
2013-04-06 04:33:00,49.3,42.7,30.05,South,180,4.5,4.5,78,0.00,,---,0.19,VWS V14.01,2013-04-06 11:33:00,
2013-04-06 04:38:00,49.3,43.1,30.05,South,180,4.7,4.7,79,0.00,,---,0.19,VWS V14.01,2013-04-06 11:38:00,
2013-04-06 04:43:00,49.1,42.9,30.05,South,180,3.4,3.4,79,0.00,,---,0.19,VWS V14.01,2013-04-06 11:43:00,
2013-04-06 04:48:00,49.3,42.7,30.06,South,180,4.0,4.0,78,0.00,,---,0.19,VWS V14.01,2013-04-06 11:48:00,
2013-04-06 04:53:00,49.3,42.7,30.05,South,180,6.7,6.7,78,0.00,,---,0.19,VWS V14.01,2013-04-06 11:53:00,
2013-04-06 04:58:00,49.3,43.1,30.06,South,180,2.5,2.5,79,0.00,,---,0.19,VWS V14.01,2013-04-06 11:58:00,
2013-04-06 05:03:00,49.1,42.9,30.06,South,180,1.1,1.1,79,0.00,,---,0.19,VWS V14.01,2013-04-06 12:03:00,
2013-04-06 05:08:00,49.0,42.5,30.06,South,180,2.5,2.5,78,0.00,,---,0.19,VWS V14.01,2013-04-06 12:08:00,
2013-04-06 05:13:00,49.0,42.5,30.06,South,180,0.4,1.3,78,0.00,,---,0.19,VWS V14.01,2013-04-06 12:13:00,
2013-04-06 05:18:00,49.0,42.8,30.06,South,180,0.4,0.4,79,0.00,,---,0.19,VWS V14.01,2013-04-06 12:18:00,
2013-04-06 05:23:00,48.8,42.9,30.06,South,180,1.8,1.8,80,0.01,,---,0.20,VWS V14.01,2013-04-06 12:23:00,
2013-04-06 05:28:00,48.6,42.7,30.06,South,180,3.1,3.1,80,0.01,,---,0.20,VWS V14.01,2013-04-06 12:28:00,
2013-04-06 05:33:00,48.6,43.4,30.07,South,180,0.4,0.4,82,0.01,,---,0.20,VWS V14.01,2013-04-06 12:33:00,
2013-04-06 05:38:00,48.4,43.2,30.07,South,180,2.5,2.5,82,0.02,,---,0.21,VWS V14.01,2013-04-06 12:38:00,
2013-04-06 05:43:00,48.2,43.0,30.07,South,180,1.8,1.8,82,0.02,,---,0.21,VWS V14.01,2013-04-06 12:43:00,
2013-04-06 05:48:00,47.9,43.0,30.07,ESE,112,2.9,2.9,83,0.03,,---,0.00,VWS V14.01,2013-04-06 12:48:00,
2013-04-06 05:53:00,47.9,43.0,30.09,South,180,3.8,3.8,83,0.04,,---,0.23,VWS V14.01,2013-04-06 12:53:00,
2013-04-06 05:58:00,47.7,43.4,30.09,South,180,2.9,2.9,85,0.07,,---,0.26,VWS V14.01,2013-04-06 12:58:00,
2013-04-06 06:03:00,47.3,42.7,30.09,South,180,4.0,4.0,84,0.07,,---,0.26,VWS V14.01,2013-04-06 13:03:00,
2013-04-06 06:08:00,47.0,42.4,30.08,South,180,1.8,2.5,84,0.08,,---,0.27,VWS V14.01,2013-04-06 13:08:00,
2013-04-06 06:13:00,46.8,42.2,30.08,South,180,2.5,2.7,84,0.09,,---,0.28,VWS V14.01,2013-04-06 13:13:00,
2013-04-06 06:18:00,46.4,42.1,30.08,South,180,0.9,0.9,85,0.09,,---,0.28,VWS V14.01,2013-04-06 13:18:00,
2013-04-06 06:23:00,46.4,41.5,30.08,South,180,5.6,5.6,83,0.08,,---,0.28,VWS V14.01,2013-04-06 13:23:00,
2013-04-06 06:28:00,46.6,41.7,30.09,South,180,2.7,2.7,83,0.08,,---,0.28,VWS V14.01,2013-04-06 13:28:00,
2013-04-06 06:33:00,46.8,41.6,30.09,South,180,5.6,5.6,82,0.08,,---,0.28,VWS V14.01,2013-04-06 13:33:00,
2013-04-06 06:38:00,46.8,41.3,30.09,South,180,4.7,4.7,81,0.07,,---,0.28,VWS V14.01,2013-04-06 13:38:00,
2013-04-06 06:43:00,46.8,41.6,30.09,South,180,3.1,3.1,82,0.07,,---,0.28,VWS V14.01,2013-04-06 13:43:00,
2013-04-06 06:48:00,46.8,41.0,30.09,South,180,5.6,5.6,80,0.06,,---,0.28,VWS V14.01,2013-04-06 13:48:00,
2013-04-06 06:53:00,46.8,41.3,30.09,South,180,3.4,3.4,81,0.05,,---,0.28,VWS V14.01,2013-04-06 13:53:00,
2013-04-06 06:58:00,47.0,41.2,30.09,SSE,158,5.8,5.8,80,0.02,,---,0.28,VWS V14.01,2013-04-06 13:58:00,
2013-04-06 07:03:00,47.0,40.5,30.09,South,180,3.4,3.4,78,0.02,,---,0.28,VWS V14.01,2013-04-06 14:03:00,
2013-04-06 07:08:00,47.0,40.5,30.09,South,180,4.5,4.5,78,0.01,,---,0.28,VWS V14.01,2013-04-06 14:08:00,
2013-04-06 07:13:00,47.0,40.5,30.09,South,180,2.9,2.9,78,0.00,,---,0.28,VWS V14.01,2013-04-06 14:13:00,
2013-04-06 07:18:00,46.8,41.0,30.09,South,180,0.4,0.4,80,0.00,,---,0.28,VWS V14.01,2013-04-06 14:18:00,
2013-04-06 07:23:00,46.8,41.0,30.10,South,180,6.3,6.3,80,0.00,,---,0.28,VWS V14.01,2013-04-06 14:23:00,
2013-04-06 07:28:00,46.8,41.6,30.10,South,180,3.6,3.6,82,0.00,,---,0.28,VWS V14.01,2013-04-06 14:28:00,
2013-04-06 07:33:00,46.6,41.4,30.11,South,180,1.8,3.6,82,0.01,,---,0.29,VWS V14.01,2013-04-06 14:33:00,
2013-04-06 07:38:00,46.4,41.2,30.10,South,180,4.0,4.0,82,0.01,,---,0.29,VWS V14.01,2013-04-06 14:38:00,
2013-04-06 07:43:00,46.3,41.1,30.10,South,180,2.9,2.9,82,0.02,,---,0.30,VWS V14.01,2013-04-06 14:43:00,
2013-04-06 07:48:00,46.1,40.9,30.10,South,180,4.3,4.3,82,0.02,,---,0.30,VWS V14.01,2013-04-06 14:48:00,
2013-04-06 07:53:00,46.1,40.9,30.10,South,180,3.6,3.6,82,0.02,,---,0.30,VWS V14.01,2013-04-06 14:53:00,
2013-04-06 07:58:00,45.7,40.5,30.10,South,180,1.6,1.6,82,0.02,,---,0.30,VWS V14.01,2013-04-06 14:58:00,
2013-04-06 08:03:00,45.7,40.8,30.10,South,180,2.5,2.5,83,0.02,,---,0.30,VWS V14.01,2013-04-06 15:03:00,
2013-04-06 08:08:00,45.7,40.8,30.11,South,180,3.4,3.4,83,0.02,,---,0.30,VWS V14.01,2013-04-06 15:08:00,
2013-04-06 08:13:00,45.7,41.2,30.12,South,180,2.0,2.0,84,0.03,,---,0.31,VWS V14.01,2013-04-06 15:13:00,
2013-04-06 08:18:00,45.7,41.5,30.12,South,180,1.3,1.3,85,0.04,,---,0.32,VWS V14.01,2013-04-06 15:18:00,
2013-04-06 08:23:00,45.5,41.3,30.11,South,180,0.7,0.7,85,0.05,,---,0.00,VWS V14.01,2013-04-06 15:23:00,
2013-04-06 08:28:00,45.7,41.5,30.12,South,180,0.0,0.0,85,0.05,,---,0.33,VWS V14.01,2013-04-06 15:28:00,
2013-04-06 08:33:00,45.7,41.5,30.12,South,180,0.0,0.0,85,0.04,,---,0.33,VWS V14.01,2013-04-06 15:33:00,
2013-04-06 08:38:00,45.7,41.8,30.12,South,180,0.4,0.4,86,0.05,,---,0.34,VWS V14.01,2013-04-06 15:38:00,
2013-04-06 08:43:00,45.7,42.1,30.12,South,180,0.0,0.0,87,0.04,,---,0.34,VWS V14.01,2013-04-06 15:43:00,
2013-04-06 08:48:00,45.9,42.3,30.12,South,180,0.0,0.0,87,0.04,,---,0.34,VWS V14.01,2013-04-06 15:48:00,
2013-04-06 08:53:00,46.1,42.5,30.12,South,180,0.7,0.7,87,0.05,,---,0.35,VWS V14.01,2013-04-06 15:53:00,
2013-04-06 08:58:00,46.1,42.5,30.13,South,180,0.4,1.8,87,0.06,,---,0.36,VWS V14.01,2013-04-06 15:58:00,
2013-04-06 09:03:00,46.1,42.5,30.13,South,180,0.4,0.4,87,0.07,,---,0.37,VWS V14.01,2013-04-06 16:03:00,
2013-04-06 09:08:00,45.7,42.1,30.13,South,180,0.0,0.4,87,0.09,,---,0.39,VWS V14.01,2013-04-06 16:08:00,
2013-04-06 09:13:00,45.7,42.1,30.13,South,180,0.0,0.0,87,0.09,,---,0.00,VWS V14.01,2013-04-06 16:13:00,
2013-04-06 09:18:00,45.7,42.4,30.13,South,180,0.0,0.0,88,0.08,,---,0.41,VWS V14.01,2013-04-06 16:18:00,
2013-04-06 09:23:00,45.7,42.7,30.13,South,180,1.1,1.1,89,0.07,,---,0.41,VWS V14.01,2013-04-06 16:23:00,
2013-04-06 09:28:00,45.9,42.8,30.13,South,180,0.0,1.1,89,0.07,,---,0.41,VWS V14.01,2013-04-06 16:28:00,
2013-04-06 09:33:00,46.3,43.2,30.13,South,180,1.6,1.6,89,0.07,,---,0.41,VWS V14.01,2013-04-06 16:33:00,
2013-04-06 09:38:00,46.4,43.3,30.14,South,180,0.4,0.4,89,0.07,,---,0.41,VWS V14.01,2013-04-06 16:38:00,
2013-04-06 09:43:00,46.4,43.3,30.14,South,180,1.1,1.1,89,0.07,,---,0.41,VWS V14.01,2013-04-06 16:43:00,
2013-04-06 09:48:00,46.6,43.5,30.14,South,180,3.6,3.6,89,0.08,,---,0.43,VWS V14.01,2013-04-06 16:48:00,
2013-04-06 09:53:00,47.0,43.6,30.14,South,180,3.4,3.4,88,0.07,,---,0.43,VWS V14.01,2013-04-06 16:53:00,
2013-04-06 09:58:00,47.3,43.9,30.14,SSE,158,5.8,5.8,88,0.06,,---,0.43,VWS V14.01,2013-04-06 16:58:00,
2013-04-06 10:03:00,47.9,44.2,30.14,South,180,4.3,4.3,87,0.06,,---,0.43,VWS V14.01,2013-04-06 17:03:00,
2013-04-06 10:08:00,47.9,43.9,30.14,South,180,0.0,1.8,86,0.05,,---,0.43,VWS V14.01,2013-04-06 17:08:00,
2013-04-06 10:13:00,48.1,44.1,30.14,South,180,0.7,0.7,86,0.03,,---,0.43,VWS V14.01,2013-04-06 17:13:00,
2013-04-06 10:18:00,48.2,44.5,30.15,South,180,0.0,0.0,87,0.03,,---,0.43,VWS V14.01,2013-04-06 17:18:00,
2013-04-06 10:23:00,48.2,43.9,30.14,South,180,2.7,2.7,85,0.03,,---,0.43,VWS V14.01,2013-04-06 17:23:00,
2013-04-06 10:28:00,48.6,44.3,30.14,South,180,0.0,0.0,85,0.03,,---,0.43,VWS V14.01,2013-04-06 17:28:00,
2013-04-06 10:33:00,48.8,44.8,30.14,South,180,0.0,0.0,86,0.03,,---,0.43,VWS V14.01,2013-04-06 17:33:00,
2013-04-06 10:38:00,49.0,45.0,30.15,South,180,1.8,1.8,86,0.02,,---,0.43,VWS V14.01,2013-04-06 17:38:00,
2013-04-06 10:43:00,49.0,45.0,30.15,South,180,0.2,0.2,86,0.02,,---,0.43,VWS V14.01,2013-04-06 17:43:00,
2013-04-06 10:48:00,49.0,45.6,30.15,South,180,1.1,1.1,88,0.01,,---,0.43,VWS V14.01,2013-04-06 17:48:00,
2013-04-06 10:53:00,48.6,44.3,30.16,South,180,1.1,1.1,85,0.01,,---,0.43,VWS V14.01,2013-04-06 17:53:00,
2013-04-06 10:58:00,48.2,44.2,30.16,South,180,1.1,1.1,86,0.02,,---,0.44,VWS V14.01,2013-04-06 17:58:00,
2013-04-06 11:03:00,48.1,44.1,30.15,South,180,1.1,1.1,86,0.01,,---,0.44,VWS V14.01,2013-04-06 18:03:00,
2013-04-06 11:08:00,47.5,43.5,30.15,South,180,1.1,1.1,86,0.02,,---,0.00,VWS V14.01,2013-04-06 18:08:00,
2013-04-06 11:13:00,47.2,43.2,30.17,South,180,1.1,1.1,86,0.03,,---,0.46,VWS V14.01,2013-04-06 18:13:00,
2013-04-06 11:18:00,46.6,42.3,30.17,South,180,2.7,2.7,85,0.08,,---,0.52,VWS V14.01,2013-04-06 18:18:00,
2013-04-06 11:23:00,46.1,42.2,30.18,South,180,1.1,1.3,86,0.09,,---,0.53,VWS V14.01,2013-04-06 18:23:00,
2013-04-06 11:28:00,45.7,41.8,30.17,South,180,1.3,1.3,86,0.12,,---,0.56,VWS V14.01,2013-04-06 18:28:00,
2013-04-06 11:33:00,45.7,42.1,30.17,South,180,0.2,0.4,87,0.15,,---,0.59,VWS V14.01,2013-04-06 18:33:00,
2013-04-06 11:38:00,45.7,42.1,30.17,South,180,1.8,1.8,87,0.15,,---,0.59,VWS V14.01,2013-04-06 18:38:00,
2013-04-06 11:43:00,45.9,42.3,30.17,South,180,2.5,2.5,87,0.17,,---,0.60,VWS V14.01,2013-04-06 18:43:00,
2013-04-06 11:48:00,45.9,42.3,30.17,South,180,1.6,1.6,87,0.19,,---,0.62,VWS V14.01,2013-04-06 18:48:00,
2013-04-06 11:53:00,45.7,42.1,30.18,South,180,2.9,3.1,87,0.20,,---,0.63,VWS V14.01,2013-04-06 18:53:00,
2013-04-06 11:58:00,45.5,41.9,30.17,South,180,1.1,1.1,87,0.20,,---,0.65,VWS V14.01,2013-04-06 18:58:00,
2013-04-06 12:03:00,45.4,41.8,30.18,South,180,0.0,0.0,87,0.22,,---,0.67,VWS V14.01,2013-04-06 19:03:00,
2013-04-06 12:08:00,45.9,42.5,30.17,South,180,0.0,0.0,88,0.21,,---,0.67,VWS V14.01,2013-04-06 19:08:00,
2013-04-06 12:13:00,46.4,43.0,30.17,South,180,1.1,1.1,88,0.20,,---,0.67,VWS V14.01,2013-04-06 19:13:00,
2013-04-06 12:18:00,46.8,43.4,30.18,South,180,0.2,0.2,88,0.16,,---,0.68,VWS V14.01,2013-04-06 19:18:00,
2013-04-06 12:23:00,47.3,43.9,30.18,South,180,0.4,0.4,88,0.16,,---,0.69,VWS V14.01,2013-04-06 19:23:00,
2013-04-06 12:28:00,47.7,44.3,30.17,South,180,0.7,0.7,88,0.15,,---,0.71,VWS V14.01,2013-04-06 19:28:00,
2013-04-06 12:33:00,47.9,44.5,30.18,South,180,0.0,0.2,88,0.13,,---,0.71,VWS V14.01,2013-04-06 19:33:00,
2013-04-06 12:38:00,47.5,43.8,30.17,South,180,1.8,1.8,87,0.14,,---,0.73,VWS V14.01,2013-04-06 19:38:00,
2013-04-06 12:43:00,47.5,43.8,30.18,South,180,2.0,2.0,87,0.14,,---,0.74,VWS V14.01,2013-04-06 19:43:00,
2013-04-06 12:48:00,47.7,44.3,30.17,South,180,1.1,1.1,88,0.14,,---,0.75,VWS V14.01,2013-04-06 19:48:00,
2013-04-06 12:53:00,47.9,44.2,30.17,South,180,0.0,0.0,87,0.12,,---,0.75,VWS V14.01,2013-04-06 19:53:00,
2013-04-06 12:58:00,48.4,45.0,30.17,South,180,2.0,2.0,88,0.10,,---,0.75,VWS V14.01,2013-04-06 19:58:00,
2013-04-06 13:03:00,48.6,44.3,30.17,South,180,4.0,4.7,85,0.08,,---,0.75,VWS V14.01,2013-04-06 20:03:00,
2013-04-06 13:08:00,49.0,45.0,30.17,South,180,1.8,1.8,86,0.08,,---,0.75,VWS V14.01,2013-04-06 20:08:00,
2013-04-06 13:13:00,49.5,45.8,30.17,South,180,2.0,2.0,87,0.08,,---,0.75,VWS V14.01,2013-04-06 20:13:00,
2013-04-06 13:18:00,50.2,46.2,30.17,SSW,202,1.1,1.1,86,0.07,,---,0.75,VWS V14.01,2013-04-06 20:18:00,
2013-04-06 13:23:00,50.8,46.8,30.17,South,180,2.5,2.5,86,0.06,,---,0.75,VWS V14.01,2013-04-06 20:23:00,
2013-04-06 13:28:00,51.1,46.8,30.17,South,180,0.4,0.4,85,0.04,,---,0.75,VWS V14.01,2013-04-06 20:28:00,
2013-04-06 13:33:00,51.3,46.6,30.17,South,180,4.5,4.5,84,0.04,,---,0.75,VWS V14.01,2013-04-06 20:33:00,
2013-04-06 13:38:00,51.7,47.3,30.17,South,180,1.1,1.1,85,0.02,,---,0.75,VWS V14.01,2013-04-06 20:38:00,
2013-04-06 13:43:00,52.0,47.0,30.17,South,180,1.1,1.1,83,0.01,,---,0.75,VWS V14.01,2013-04-06 20:43:00,
2013-04-06 13:48:00,52.6,46.0,30.17,South,180,2.9,2.9,78,0.00,,---,0.75,VWS V14.01,2013-04-06 20:48:00,
2013-04-06 13:53:00,52.7,46.7,30.17,South,180,2.0,2.0,80,0.00,,---,0.75,VWS V14.01,2013-04-06 20:53:00,
2013-04-06 13:58:00,53.6,47.6,30.17,South,180,1.8,1.8,80,0.00,,---,0.75,VWS V14.01,2013-04-06 20:58:00,
2013-04-06 14:03:00,54.0,47.0,30.17,South,180,5.4,5.4,77,0.00,,---,0.75,VWS V14.01,2013-04-06 21:03:00,
2013-04-06 14:08:00,54.0,46.6,30.17,South,180,0.7,0.7,76,0.00,,---,0.75,VWS V14.01,2013-04-06 21:08:00,
2013-04-06 14:13:00,53.6,44.8,30.18,South,180,7.6,7.6,72,0.00,,---,0.75,VWS V14.01,2013-04-06 21:13:00,
2013-04-06 14:18:00,53.3,45.2,30.17,South,180,3.4,3.4,74,0.00,,---,0.75,VWS V14.01,2013-04-06 21:18:00,
2013-04-06 14:23:00,52.9,45.2,30.17,South,180,0.4,0.4,75,0.00,,---,0.75,VWS V14.01,2013-04-06 21:23:00,
2013-04-06 14:28:00,53.3,45.9,30.17,South,180,0.0,2.7,76,0.00,,---,0.75,VWS V14.01,2013-04-06 21:28:00,
2013-04-06 14:33:00,53.8,46.4,30.17,South,180,2.5,2.5,76,0.00,,---,0.75,VWS V14.01,2013-04-06 21:33:00,
2013-04-06 14:38:00,54.4,45.9,30.17,South,180,1.3,1.3,73,0.00,,---,0.75,VWS V14.01,2013-04-06 21:38:00,
2013-04-06 14:43:00,54.4,45.2,30.17,South,180,2.9,2.9,71,0.00,,---,0.75,VWS V14.01,2013-04-06 21:43:00,
2013-04-06 14:48:00,54.4,46.3,30.17,South,180,0.4,0.4,74,0.00,,---,0.75,VWS V14.01,2013-04-06 21:48:00,
2013-04-06 14:53:00,54.0,45.5,30.17,South,180,0.9,0.9,73,0.00,,---,0.75,VWS V14.01,2013-04-06 21:53:00,
2013-04-06 14:58:00,53.6,45.2,30.18,South,180,1.6,1.6,73,0.00,,---,0.75,VWS V14.01,2013-04-06 21:58:00,
2013-04-06 15:03:00,53.3,45.2,30.18,South,180,1.1,1.3,74,0.00,,---,0.75,VWS V14.01,2013-04-06 22:03:00,
2013-04-06 15:08:00,52.9,45.2,30.18,South,180,4.0,4.0,75,0.00,,---,0.75,VWS V14.01,2013-04-06 22:08:00,
2013-04-06 15:13:00,52.6,45.3,30.17,South,180,2.0,2.0,76,0.01,,---,0.76,VWS V14.01,2013-04-06 22:13:00,
2013-04-06 15:18:00,52.2,43.8,30.17,South,180,3.1,3.1,73,0.01,,---,0.76,VWS V14.01,2013-04-06 22:18:00,
2013-04-06 15:23:00,52.2,44.5,30.17,South,180,2.5,2.5,75,0.01,,---,0.76,VWS V14.01,2013-04-06 22:23:00,
2013-04-06 15:28:00,52.6,44.6,30.17,South,180,3.4,3.4,74,0.01,,---,0.76,VWS V14.01,2013-04-06 22:28:00,
2013-04-06 15:34:00,52.6,43.8,30.17,South,180,3.6,3.6,72,0.01,,---,0.76,VWS V14.01,2013-04-06 22:34:00,
2013-04-06 15:39:00,52.4,42.9,30.17,SW,225,4.5,4.5,70,0.01,,---,0.76,VWS V14.01,2013-04-06 22:39:00,
2013-04-06 15:44:00,52.0,42.2,30.17,South,180,6.0,6.0,69,0.01,,---,0.76,VWS V14.01,2013-04-06 22:44:00,
2013-04-06 15:49:00,51.8,42.3,30.17,South,180,1.1,1.1,70,0.01,,---,0.76,VWS V14.01,2013-04-06 22:49:00,
2013-04-06 15:54:00,51.8,43.1,30.17,South,180,4.0,4.0,72,0.01,,---,0.76,VWS V14.01,2013-04-06 22:54:00,
2013-04-06 15:59:00,52.2,43.1,30.16,South,180,5.4,5.4,71,0.01,,---,0.76,VWS V14.01,2013-04-06 22:59:00,
2013-04-06 16:04:00,52.4,42.5,30.16,South,180,4.9,4.9,69,0.01,,---,0.76,VWS V14.01,2013-04-06 23:04:00,
2013-04-06 16:09:00,52.7,42.8,30.16,South,180,1.6,4.3,69,0.00,,---,0.76,VWS V14.01,2013-04-06 23:09:00,
2013-04-06 16:14:00,53.5,42.8,30.16,South,180,3.4,5.1,67,0.00,,---,0.76,VWS V14.01,2013-04-06 23:14:00,
2013-04-06 16:19:00,53.6,42.5,30.16,South,180,5.6,5.6,66,0.00,,---,0.76,VWS V14.01,2013-04-06 23:19:00,
2013-04-06 16:24:00,52.9,41.5,30.17,WSW,248,4.7,4.7,65,0.00,,---,0.76,VWS V14.01,2013-04-06 23:24:00,
2013-04-06 16:29:00,52.2,42.0,30.16,South,180,0.9,1.1,68,0.00,,---,0.76,VWS V14.01,2013-04-06 23:29:00,
2013-04-06 16:34:00,51.7,41.5,30.16,South,180,3.4,3.4,68,0.00,,---,0.76,VWS V14.01,2013-04-06 23:34:00,
2013-04-06 16:39:00,51.5,40.5,30.16,South,180,5.1,5.1,66,0.00,,---,0.76,VWS V14.01,2013-04-06 23:39:00,
2013-04-06 16:44:00,51.5,41.3,30.15,South,180,2.2,2.2,68,0.00,,---,0.76,VWS V14.01,2013-04-06 23:44:00,
2013-04-06 16:49:00,51.5,40.9,30.16,South,180,2.5,3.4,67,0.00,,---,0.76,VWS V14.01,2013-04-06 23:49:00,
2013-04-06 16:54:00,51.5,41.3,30.15,South,180,0.0,0.0,68,0.00,,---,0.76,VWS V14.01,2013-04-06 23:54:00,
2013-04-06 16:59:00,51.3,41.1,30.15,South,180,0.0,0.0,68,0.00,,---,0.76,VWS V14.01,2013-04-06 23:59:00,
2013-04-06 17:04:00,51.5,42.0,30.15,South,180,0.0,0.0,70,0.00,,---,0.76,VWS V14.01,2013-04-07 00:04:00,
2013-04-06 17:09:00,51.5,42.4,30.15,South,180,0.4,0.7,71,0.00,,---,0.76,VWS V14.01,2013-04-07 00:09:00,
2013-04-06 17:14:00,51.5,42.4,30.15,South,180,0.2,2.5,71,0.00,,---,0.76,VWS V14.01,2013-04-07 00:14:00,
2013-04-06 17:20:00,51.5,42.8,30.15,South,180,0.2,0.2,72,0.00,,---,0.76,VWS V14.01,2013-04-07 00:20:00,
2013-04-06 17:25:00,51.5,42.4,30.16,South,180,1.6,1.6,71,0.00,,---,0.76,VWS V14.01,2013-04-07 00:25:00,
2013-04-06 17:30:00,51.3,41.9,30.16,South,180,1.8,1.8,70,0.00,,---,0.76,VWS V14.01,2013-04-07 00:30:00,
2013-04-06 17:35:00,51.1,40.9,30.16,South,180,2.5,2.5,68,0.00,,---,0.76,VWS V14.01,2013-04-07 00:35:00,
2013-04-06 17:40:00,50.6,41.9,30.16,South,180,2.5,2.5,72,0.00,,---,0.76,VWS V14.01,2013-04-07 00:40:00,
2013-04-06 17:45:00,49.9,40.9,30.16,South,180,3.4,3.4,71,0.00,,---,0.76,VWS V14.01,2013-04-07 00:45:00,
2013-04-06 17:50:00,49.5,40.9,30.17,South,180,0.7,0.7,72,0.00,,---,0.76,VWS V14.01,2013-04-07 00:50:00,
2013-04-06 17:55:00,49.5,41.2,30.16,East,90,1.8,1.8,73,0.00,,---,0.76,VWS V14.01,2013-04-07 00:55:00,
2013-04-06 18:00:00,49.5,41.6,30.16,South,180,1.6,1.6,74,0.00,,---,0.76,VWS V14.01,2013-04-07 01:00:00,
2013-04-06 18:05:00,49.5,41.6,30.16,NNE,22,2.5,2.5,74,0.00,,---,0.76,VWS V14.01,2013-04-07 01:05:00,
2013-04-06 18:10:00,49.3,41.7,30.16,North,0,0.9,1.1,75,0.00,,---,0.76,VWS V14.01,2013-04-07 01:10:00,
2013-04-06 18:15:00,49.1,41.5,30.16,NNE,22,2.2,2.2,75,0.00,,---,0.76,VWS V14.01,2013-04-07 01:15:00,
2013-04-06 18:20:00,48.8,41.2,30.16,NE,45,3.4,3.4,75,0.00,,---,0.76,VWS V14.01,2013-04-07 01:20:00,
2013-04-06 18:25:00,48.6,41.0,30.16,South,180,1.1,1.1,75,0.00,,---,0.76,VWS V14.01,2013-04-07 01:25:00,
2013-04-06 18:30:00,48.4,41.2,30.16,South,180,1.1,1.1,76,0.00,,---,0.76,VWS V14.01,2013-04-07 01:30:00,
2013-04-06 18:35:00,48.4,41.2,30.16,South,180,1.8,1.8,76,0.00,,---,0.76,VWS V14.01,2013-04-07 01:35:00,
2013-04-06 18:40:00,48.2,41.3,30.15,NNE,22,1.8,1.8,77,0.00,,---,0.76,VWS V14.01,2013-04-07 01:40:00,
2013-04-06 18:45:00,48.1,41.2,30.15,North,0,1.6,1.6,77,0.00,,---,0.76,VWS V14.01,2013-04-07 01:45:00,
2013-04-06 18:50:00,47.9,41.0,30.15,NE,45,1.6,1.6,77,0.00,,---,0.76,VWS V14.01,2013-04-07 01:50:00,
2013-04-06 18:55:00,47.7,41.2,30.15,North,0,2.9,2.9,78,0.00,,---,0.76,VWS V14.01,2013-04-07 01:55:00,
2013-04-06 19:00:00,47.5,41.0,30.14,NNE,22,0.4,2.2,78,0.00,,---,0.76,VWS V14.01,2013-04-07 02:00:00,
2013-04-06 19:05:00,47.2,40.7,30.14,NNE,22,1.3,1.3,78,0.00,,---,0.76,VWS V14.01,2013-04-07 02:05:00,
2013-04-06 19:10:00,47.2,40.7,30.14,NNE,22,0.4,1.1,78,0.00,,---,0.76,VWS V14.01,2013-04-07 02:10:00,
2013-04-06 19:15:00,47.2,41.0,30.14,NNE,22,1.8,1.8,79,0.00,,---,0.76,VWS V14.01,2013-04-07 02:15:00,
2013-04-06 19:20:00,46.8,40.3,30.14,NNE,22,2.0,2.0,78,0.00,,---,0.76,VWS V14.01,2013-04-07 02:20:00,
2013-04-06 19:25:00,46.6,40.5,30.14,North,0,0.7,0.7,79,0.00,,---,0.00,VWS V14.01,2013-04-07 02:25:00,
2013-04-06 19:30:00,46.4,40.2,30.13,NNE,22,0.0,0.2,79,0.00,,---,0.76,VWS V14.01,2013-04-07 02:30:00,
2013-04-06 19:35:00,46.4,40.6,30.13,NNE,22,1.1,1.1,80,0.00,,---,0.76,VWS V14.01,2013-04-07 02:35:00,
2013-04-06 19:40:00,46.4,40.9,30.13,NNE,22,1.8,1.8,81,0.00,,---,0.76,VWS V14.01,2013-04-07 02:40:00,
2013-04-06 19:45:00,46.4,40.9,30.13,ENE,68,0.0,0.0,81,0.00,,---,0.76,VWS V14.01,2013-04-07 02:45:00,
2013-04-06 19:50:00,46.3,40.8,30.13,NNE,22,1.3,1.3,81,0.00,,---,0.76,VWS V14.01,2013-04-07 02:50:00,
2013-04-06 19:55:00,46.3,40.8,30.12,NNE,22,0.0,0.0,81,0.00,,---,0.76,VWS V14.01,2013-04-07 02:55:00,
2013-04-06 20:00:00,46.3,41.1,30.13,NNE,22,0.0,0.0,82,0.00,,---,0.76,VWS V14.01,2013-04-07 03:00:00,
2013-04-06 20:05:00,46.3,41.1,30.12,NNE,22,0.0,0.0,82,0.00,,---,0.76,VWS V14.01,2013-04-07 03:05:00,
2013-04-06 20:10:00,46.1,40.9,30.12,NNE,22,0.0,0.0,82,0.00,,---,0.76,VWS V14.01,2013-04-07 03:10:00,
2013-04-06 20:15:00,46.1,40.9,30.12,NNE,22,0.0,0.4,82,0.00,,---,0.76,VWS V14.01,2013-04-07 03:15:00,
2013-04-06 20:20:00,46.1,40.9,30.12,South,180,0.0,0.0,82,0.00,,---,0.76,VWS V14.01,2013-04-07 03:20:00,
2013-04-06 20:25:00,45.7,40.5,30.12,South,180,0.0,0.0,82,0.00,,---,0.76,VWS V14.01,2013-04-07 03:25:00,
2013-04-06 20:30:00,45.7,40.5,30.12,ENE,68,0.0,0.0,82,0.00,,---,0.76,VWS V14.01,2013-04-07 03:30:00,
2013-04-06 20:35:00,45.7,40.8,30.11,NNE,22,2.0,2.0,83,0.00,,---,0.76,VWS V14.01,2013-04-07 03:35:00,
2013-04-06 20:40:00,45.7,40.8,30.11,NE,45,0.0,0.0,83,0.00,,---,0.76,VWS V14.01,2013-04-07 03:40:00,
2013-04-06 20:45:00,45.5,40.7,30.11,NNE,22,1.1,1.1,83,0.00,,---,0.76,VWS V14.01,2013-04-07 03:45:00,
2013-04-06 20:50:00,45.4,40.5,30.11,NNE,22,1.6,1.6,83,0.00,,---,0.76,VWS V14.01,2013-04-07 03:50:00,
2013-04-06 20:55:00,45.2,40.3,30.10,NNW,338,0.0,0.0,83,0.00,,---,0.76,VWS V14.01,2013-04-07 03:55:00,
2013-04-06 21:00:00,45.2,40.3,30.10,NNW,338,0.0,0.0,83,0.01,,---,0.77,VWS V14.01,2013-04-07 04:00:00,
2013-04-06 21:05:00,45.0,40.2,30.10,WNW,292,0.0,0.0,83,0.01,,---,0.77,VWS V14.01,2013-04-07 04:05:00,
2013-04-06 21:10:00,45.0,40.5,30.10,WNW,292,0.0,0.0,84,0.01,,---,0.77,VWS V14.01,2013-04-07 04:10:00,
2013-04-06 21:15:00,45.0,40.5,30.10,West,270,0.0,0.0,84,0.01,,---,0.77,VWS V14.01,2013-04-07 04:15:00,
2013-04-06 21:20:00,44.8,40.3,30.09,West,270,0.4,0.4,84,0.01,,---,0.77,VWS V14.01,2013-04-07 04:20:00,
2013-04-06 21:25:00,44.6,40.4,30.09,West,270,0.0,0.0,85,0.01,,---,0.77,VWS V14.01,2013-04-07 04:25:00,
2013-04-06 21:30:00,44.6,40.4,30.09,West,270,0.0,0.0,85,0.01,,---,0.77,VWS V14.01,2013-04-07 04:30:00,
2013-04-06 21:35:00,44.5,40.3,30.09,West,270,0.0,0.0,85,0.01,,---,0.77,VWS V14.01,2013-04-07 04:35:00,
2013-04-06 21:40:00,44.3,40.1,30.08,West,270,0.0,0.0,85,0.01,,---,0.77,VWS V14.01,2013-04-07 04:40:00,
2013-04-06 21:45:00,44.3,40.1,30.08,West,270,0.0,0.0,85,0.01,,---,0.77,VWS V14.01,2013-04-07 04:45:00,
2013-04-06 21:50:00,44.1,39.9,30.08,West,270,0.0,0.0,85,0.01,,---,0.77,VWS V14.01,2013-04-07 04:50:00,
2013-04-06 21:55:00,44.1,40.2,30.08,West,270,0.0,0.0,86,0.01,,---,0.77,VWS V14.01,2013-04-07 04:55:00,
2013-04-06 22:00:00,43.9,40.0,30.07,West,270,0.0,0.0,86,0.00,,---,0.77,VWS V14.01,2013-04-07 05:00:00,
2013-04-06 22:05:00,43.9,40.3,30.07,West,270,0.4,0.4,87,0.00,,---,0.77,VWS V14.01,2013-04-07 05:05:00,
2013-04-06 22:10:00,43.7,40.1,30.07,West,270,0.0,0.0,87,0.00,,---,0.77,VWS V14.01,2013-04-07 05:10:00,
2013-04-06 22:15:00,43.7,40.1,30.07,West,270,0.0,0.0,87,0.00,,---,0.00,VWS V14.01,2013-04-07 05:15:00,
2013-04-06 22:20:00,43.7,40.1,30.06,West,270,0.0,0.0,87,0.00,,---,0.77,VWS V14.01,2013-04-07 05:20:00,
2013-04-06 22:25:00,43.9,40.3,30.06,West,270,0.0,0.0,87,0.00,,---,0.77,VWS V14.01,2013-04-07 05:25:00,
2013-04-06 22:30:00,43.9,40.3,30.06,West,270,0.0,0.0,87,0.00,,---,0.77,VWS V14.01,2013-04-07 05:30:00,
2013-04-06 22:35:00,43.9,40.3,30.06,West,270,0.0,0.0,87,0.00,,---,0.77,VWS V14.01,2013-04-07 05:35:00,
2013-04-06 22:40:00,43.9,40.3,30.05,West,270,0.0,0.0,87,0.00,,---,0.77,VWS V14.01,2013-04-07 05:40:00,
2013-04-06 22:45:00,43.7,40.4,30.05,West,270,0.0,0.0,88,0.00,,---,0.77,VWS V14.01,2013-04-07 05:45:00,
2013-04-06 22:50:00,43.6,40.3,30.04,West,270,0.0,0.0,88,0.00,,---,0.77,VWS V14.01,2013-04-07 05:50:00,
2013-04-06 22:55:00,43.7,40.4,30.04,West,270,0.0,0.0,88,0.00,,---,0.77,VWS V14.01,2013-04-07 05:55:00,
2013-04-06 23:00:00,43.6,40.3,30.04,West,270,0.0,0.0,88,0.00,,---,0.77,VWS V14.01,2013-04-07 06:00:00,
2013-04-06 23:05:00,43.7,40.4,30.03,West,270,0.0,0.0,88,0.00,,---,0.77,VWS V14.01,2013-04-07 06:05:00,
2013-04-06 23:10:00,43.7,40.4,30.02,West,270,0.0,0.0,88,0.00,,---,0.77,VWS V14.01,2013-04-07 06:10:00,
2013-04-06 23:15:00,43.7,40.4,30.02,West,270,0.0,0.0,88,0.01,,---,0.78,VWS V14.01,2013-04-07 06:15:00,
2013-04-06 23:20:00,43.7,40.4,30.01,West,270,0.0,0.0,88,0.01,,---,0.78,VWS V14.01,2013-04-07 06:20:00,
2013-04-06 23:25:00,43.7,40.4,30.01,West,270,0.0,0.0,88,0.01,,---,0.78,VWS V14.01,2013-04-07 06:25:00,
2013-04-06 23:30:00,43.6,40.3,30.01,North,0,0.9,0.9,88,0.01,,---,0.78,VWS V14.01,2013-04-07 06:30:00,
2013-04-06 23:35:00,43.6,40.3,30.00,North,0,0.0,0.0,88,0.02,,---,0.79,VWS V14.01,2013-04-07 06:35:00,
2013-04-06 23:40:00,43.6,40.3,30.00,North,0,0.0,0.0,88,0.02,,---,0.79,VWS V14.01,2013-04-07 06:40:00,
2013-04-06 23:45:00,43.6,40.3,29.99,North,0,0.2,0.2,88,0.03,,---,0.80,VWS V14.01,2013-04-07 06:45:00,
2013-04-06 23:50:00,43.6,40.3,29.98,North,0,0.4,0.4,88,0.04,,---,0.81,VWS V14.01,2013-04-07 06:50:00,
2013-04-06 23:55:00,43.6,40.3,29.98,North,0,0.0,0.0,88,0.04,,---,0.81,VWS V14.01,2013-04-07 06:55:00,